Weather History for KENL - September, 2013

Change the Weather History Date:

Sunday, September 15, 2013

  Actual Average (KSLO) Record (KSLO)
Temperature  
Mean Temperature 66 °F -  
Max Temperature 85 °F 79 °F 93 °F (1991)
Min Temperature 49 °F 56 °F 41 °F (1961)
Cooling Degree Days 2    
Growing Degree Days 16 (Base 50)    
Moisture  
Dew Point 52 °F    
Average Humidity 60    
Maximum Humidity 90    
Minimum Humidity 29    
Precipitation  
Precipitation 0.00 in - - ()
Sea Level Pressure  
Sea Level Pressure 30.06 in    
Wind  
Wind Speed 3 mph (South)    
Max Wind Speed 10 mph    
Max Gust Speed -    
Visibility 10 miles    
Events      
Averages and records for this station are not official NWS values.
T = Trace of Precipitation, MM = Missing Value Source: NWS Daily Summary

Daily Weather History Graph

Daily Weather History Graph

Search for Another Location

Airport or City:

Trip Planner

Search our weather history database for the weather conditions in past years. The results will help you decide how hot, cold, wet, or windy it might be!

Date:

Astronomy

Sep. 15, 2013 Rise Set
Actual Time 6:38 AM CDT 7:04 PM CDT
Civil Twilight 6:11 AM CDT 7:30 PM CDT
Nautical Twilight 5:40 AM CDT 8:01 PM CDT
Astronomical Twilight 5:08 AM CDT 8:33 PM CDT
Moon 4:29 PM CDT (9/15) 2:18 AM CDT (9/15)
Length of Visible Light 13h 19m
Length of Day
12h 25m
Waxing Gibbous, 82% of the Moon is Illuminated
Sep 15
Waxing Gibbous
Sep 19
Full
Sep 26
Last Quarter
Oct 4
New
Oct 11
First Quarter

Hourly Weather History & Observations

Time (CDT) Temp. Dew Point Humidity Pressure Visibility Wind Dir Wind Speed Gust Speed Precip Events Conditions
12:15 AM 51.8 °F 46.6 °F 82% 30.08 in 10.0 mi Calm Calm - N/A   Unknown
12:35 AM 52.3 °F 47.3 °F 83% 30.08 in 10.0 mi East 3.5 mph - N/A   Unknown
12:55 AM 50.9 °F 46.4 °F 85% 30.08 in 10.0 mi Calm Calm - N/A   Unknown
1:15 AM 50.7 °F 46.2 °F 85% 30.08 in 10.0 mi Calm Calm - N/A   Unknown
1:35 AM 51.6 °F 47.1 °F 85% 30.08 in 10.0 mi Calm Calm - N/A   Unknown
1:55 AM 49.8 °F 45.7 °F 86% 30.08 in 10.0 mi Calm Calm - N/A   Unknown
2:15 AM 49.6 °F 45.9 °F 87% 30.07 in 10.0 mi Calm Calm - N/A   Unknown
2:35 AM 50.0 °F 46.4 °F 87% 30.07 in 10.0 mi Calm Calm - N/A   Unknown
2:55 AM 50.4 °F 46.4 °F 86% 30.06 in 10.0 mi Calm Calm - N/A   Unknown
3:15 AM 49.5 °F 45.9 °F 87% 30.07 in 10.0 mi Calm Calm - N/A   Unknown
3:35 AM 50.4 °F 46.8 °F 87% 30.06 in 10.0 mi Calm Calm - N/A   Unknown
3:55 AM 51.4 °F 47.7 °F 87% 30.06 in 10.0 mi Calm Calm - N/A   Unknown
4:15 AM 49.5 °F 45.7 °F 87% 30.07 in 10.0 mi Calm Calm - N/A   Unknown
4:35 AM 49.6 °F 46.2 °F 88% 30.07 in 10.0 mi Calm Calm - N/A   Unknown
4:55 AM 52.5 °F 48.4 °F 86% 30.07 in 7.0 mi Calm Calm - N/A   Unknown
5:15 AM 53.8 °F 49.3 °F 85% 30.06 in 10.0 mi SE 4.6 mph - N/A   Unknown
5:35 AM 54.0 °F 49.1 °F 84% 30.07 in 10.0 mi SSE 3.5 mph - N/A   Unknown
5:55 AM 51.6 °F 47.5 °F 86% 30.07 in 10.0 mi Calm Calm - N/A   Unknown
6:15 AM 49.8 °F 46.6 °F 89% 30.08 in 10.0 mi Calm Calm - N/A   Unknown
6:35 AM 50.2 °F 47.3 °F 90% 30.08 in 10.0 mi Calm Calm - N/A   Unknown
6:55 AM 52.3 °F 49.5 °F 90% 30.08 in 10.0 mi ESE 3.5 mph - N/A   Unknown
7:15 AM 54.7 °F 50.5 °F 86% 30.09 in 10.0 mi Calm Calm - N/A   Unknown
7:35 AM 54.7 °F 50.9 °F 87% 30.08 in 10.0 mi Calm Calm - N/A   Unknown
7:55 AM 57.0 °F 52.5 °F 85% 30.08 in 10.0 mi SSE 4.6 mph - N/A   Unknown
8:15 AM 61.5 °F 53.2 °F 74% 30.09 in 7.0 mi South 4.6 mph - N/A   Unknown
8:35 AM 64.6 °F 53.6 °F 68% 30.09 in 10.0 mi South 6.9 mph - N/A   Unknown
8:55 AM 66.9 °F 53.6 °F 62% 30.09 in 10.0 mi South 5.8 mph - N/A   Unknown
9:15 AM 68.9 °F 54.0 °F 59% 30.10 in 10.0 mi SW 5.8 mph - N/A   Unknown
9:35 AM 70.2 °F 53.8 °F 56% 30.11 in 10.0 mi SSW 5.8 mph - N/A   Unknown
9:55 AM 72.1 °F 53.8 °F 52% 30.11 in 10.0 mi SSW 6.9 mph - N/A   Unknown
10:15 AM 72.9 °F 53.6 °F 51% 30.10 in 10.0 mi South 8.1 mph - N/A   Unknown
10:35 AM 73.9 °F 54.0 °F 50% 30.09 in 10.0 mi South 8.1 mph - N/A   Unknown
10:55 AM 74.3 °F 53.2 °F 48% 30.09 in 10.0 mi South 8.1 mph - N/A   Unknown
11:15 AM 75.2 °F 52.9 °F 46% 30.09 in 10.0 mi SW 6.9 mph - N/A   Unknown
11:35 AM 75.9 °F 52.3 °F 44% 30.09 in 10.0 mi SW 4.6 mph - N/A   Unknown
11:55 AM 77.0 °F 50.5 °F 39% 30.08 in 10.0 mi South 8.1 mph - N/A   Unknown
12:15 PM 78.3 °F 50.5 °F 38% 30.08 in 10.0 mi WSW 4.6 mph - N/A   Unknown
12:35 PM 78.1 °F 49.5 °F 37% 30.08 in 10.0 mi SSE 6.9 mph - N/A   Unknown
12:55 PM 79.5 °F 50.2 °F 36% 30.08 in 10.0 mi South 10.4 mph - N/A   Unknown
1:15 PM 79.9 °F 49.3 °F 34% 30.07 in 10.0 mi SW 8.1 mph - N/A   Unknown
1:35 PM 80.8 °F 50.2 °F 34% 30.06 in 10.0 mi SW 8.1 mph - N/A   Clear
1:55 PM 81.5 °F 50.2 °F 34% 30.05 in 10.0 mi SW 5.8 mph - N/A   Clear
2:15 PM 82.2 °F 50.5 °F 33% 30.05 in 10.0 mi WSW 9.2 mph - N/A   Clear
2:35 PM 82.6 °F 47.7 °F 29% 30.04 in 10.0 mi SSW 9.2 mph - N/A   Unknown
2:55 PM 82.9 °F 47.7 °F 29% 30.04 in 10.0 mi SSW 4.6 mph - N/A   Unknown
3:15 PM 84.2 °F 48.6 °F 29% 30.04 in 10.0 mi South 8.1 mph - N/A   Unknown
3:35 PM 84.0 °F 48.4 °F 29% 30.04 in 10.0 mi SSW 6.9 mph - N/A   Unknown
3:55 PM 82.9 °F 49.5 °F 31% 30.04 in 10.0 mi South 8.1 mph - N/A   Unknown
4:15 PM 82.6 °F 50.7 °F 33% 30.03 in 10.0 mi South 8.1 mph - N/A   Unknown
4:35 PM 82.6 °F 50.7 °F 33% 30.03 in 10.0 mi South 8.1 mph - N/A   Unknown
4:55 PM 82.4 °F 50.7 °F 33% 30.03 in 10.0 mi SSW 8.1 mph - N/A   Unknown
5:15 PM 81.9 °F 51.6 °F 35% 30.02 in 10.0 mi South 9.2 mph - N/A   Unknown
5:35 PM 81.7 °F 51.8 °F 35% 30.03 in 10.0 mi South 8.1 mph - N/A   Unknown
5:55 PM 80.1 °F 52.9 °F 39% 30.02 in 10.0 mi South 6.9 mph - N/A   Unknown
6:15 PM 79.7 °F 54.1 °F 41% 30.02 in 10.0 mi SSE 5.8 mph - N/A   Unknown
6:35 PM 78.3 °F 55.0 °F 45% 30.01 in 10.0 mi South 6.9 mph - N/A   Unknown
6:55 PM 77.7 °F 55.4 °F 46% 30.02 in 10.0 mi South 5.8 mph - N/A   Unknown
7:15 PM 77.0 °F 55.8 °F 48% 30.02 in 10.0 mi South 4.6 mph - N/A   Unknown
7:35 PM 75.9 °F 56.5 °F 51% 30.03 in 10.0 mi Calm Calm - N/A   Unknown
7:55 PM 74.5 °F 57.2 °F 55% 30.03 in 10.0 mi South 3.5 mph - N/A   Unknown
8:15 PM 73.4 °F 57.6 °F 58% 30.04 in 10.0 mi Calm Calm - N/A   Unknown
8:35 PM 72.9 °F 57.7 °F 59% 30.05 in 10.0 mi South 3.5 mph - N/A   Unknown
8:55 PM 72.3 °F 58.3 °F 61% 30.05 in 10.0 mi Calm Calm - N/A   Unknown
9:15 PM 70.3 °F 59.0 °F 67% 30.05 in 10.0 mi Calm Calm - N/A   Unknown
9:35 PM 69.1 °F 59.0 °F 70% 30.05 in 10.0 mi Calm Calm - N/A   Unknown
9:55 PM 69.8 °F 59.4 °F 69% 30.05 in 10.0 mi Calm Calm - N/A   Unknown
10:15 PM 71.8 °F 57.6 °F 61% 30.05 in 10.0 mi SSW 3.5 mph - N/A   Unknown
10:35 PM 73.4 °F 57.2 °F 57% 30.06 in 10.0 mi SSW 5.8 mph - N/A   Unknown
10:55 PM 71.8 °F 57.2 °F 60% 30.06 in 10.0 mi WSW 5.8 mph - N/A   Unknown
11:15 PM 72.5 °F 57.4 °F 59% 30.07 in 10.0 mi WNW 4.6 mph - N/A   Unknown
11:35 PM 71.6 °F 58.3 °F 63% 30.07 in 10.0 mi Calm Calm - N/A   Unknown
11:55 PM 71.4 °F 58.6 °F 64% 30.08 in 10.0 mi NNW 5.8 mph - N/A   Unknown